This is the latest recevied weather packets stored in our database for station/object CE3SUR-16. If no packets are shown the sender has not sent any weather packets the latest 10 day(s).
| Time | Temp. | Humidity | Pressure | Rain* | Wind** | Luminosity | Snow |
|---|---|---|---|---|---|---|---|
| 1777975729 | 16.11° C | 71% | 954.3 hPa | - | - | - | - |
| 1777973929 | 16.11° C | 70% | 954 hPa | - | - | - | - |
| 1777972129 | 15.56° C | 71% | 953.6 hPa | - | - | - | - |
| 1777970329 | 15.56° C | 69% | 953.3 hPa | - | - | - | - |
| 1777968528 | 16.11° C | 68% | 952.9 hPa | - | - | - | - |
| 1777966728 | 15.56° C | 70% | 953 hPa | - | - | - | - |
| 1777964928 | 16.11° C | 70% | 953.4 hPa | - | - | - | - |
| 1777963128 | 16.67° C | 68% | 953.8 hPa | - | - | - | - |
| 1777961327 | 16.67° C | 67% | 954.3 hPa | - | - | - | - |
| 1777959600 | 17.22° C | 65% | 954.7 hPa | - | - | - | - |
| 1777959527 | 17.22° C | 65% | 954.7 hPa | - | - | - | - |
| 1777957730 | 17.22° C | 66% | 954.8 hPa | - | - | - | - |
| 1777955930 | 17.22° C | 65% | 954.7 hPa | - | - | - | - |
| 1777954130 | 17.78° C | 63% | 954.6 hPa | - | - | - | - |
| 1777952329 | 17.78° C | 62% | 954.6 hPa | - | - | - | - |
| 1777950529 | 17.78° C | 62% | 954.9 hPa | - | - | - | - |
| 1777948729 | 18.33° C | 63% | 955 hPa | - | - | - | - |
| 1777946929 | 18.33° C | 62% | 954.8 hPa | - | - | - | - |
| 1777945128 | 18.33° C | 60% | 954.6 hPa | - | - | - | - |
| 1777943328 | 18.89° C | 59% | 954.6 hPa | - | - | - | - |
| 1777941528 | 20° C | 64% | 954.6 hPa | - | - | - | - |
| 1777939728 | 20.56° C | 63% | 954.5 hPa | - | - | - | - |
| 1777937927 | 20.56° C | 61% | 954.3 hPa | - | - | - | - |
| 1777936130 | 21.11° C | 61% | 954.4 hPa | - | - | - | - |
| 1777934330 | 21.11° C | 56% | 954.3 hPa | - | - | - | - |
* Rain since midnight (hover to see other rain measurements)
** Current wind speed in m/s (hover to see current wind gust speed)